Location: Columbia
(38.9520°N, 92.3340°W)
Time: 11:34:37
(UTC-05:00)

Tiangong 1 - Visible Passes

Search period start: 22 June 2017 00:00
Search period end: 02 July 2017 00:00
Orbit: 321 x 345 km, 42.8° (Epoch: 21 June)

Date Brightness Start Highest point End Pass type
(mag) Time Alt. Az. Time Alt. Az. Time Alt. Az.
22 Jun 1.3 22:26:06 10° W 22:28:52 58° NNW 22:30:19 24° ENE visible
23 Jun 0.7 21:09:59 10° WSW 21:12:45 64° SSE 21:15:31 10° ENE visible
23 Jun 2.2 22:45:48 10° WNW 22:48:26 38° N 22:49:16 29° NE visible
24 Jun 1.3 21:29:24 10° W 21:32:11 59° NNW 21:34:56 10° ENE visible
24 Jun 2.4 23:05:25 10° WNW 23:07:52 34° N 23:07:52 34° N visible
25 Jun 2.2 21:49:00 10° W 21:51:40 38° N 21:54:18 10° ENE visible
25 Jun 3.1 23:24:52 10° WNW 23:26:14 24° NW 23:26:14 24° NW visible
26 Jun 2.3 22:08:32 10° WNW 22:11:09 34° N 22:13:19 13° ENE visible
26 Jun 3.9 23:44:10 10° WNW 23:44:27 12° WNW 23:44:27 12° WNW visible
27 Jun 1.8 22:27:54 10° WNW 22:30:34 42° N 22:31:27 30° ENE visible
28 Jun 2.3 21:11:29 10° WNW 21:14:06 34° N 21:16:43 10° ENE visible
28 Jun 1.3 22:47:06 10° WNW 22:49:30 58° NW 22:49:30 58° NW visible
29 Jun 1.8 21:30:45 10° WNW 21:33:27 41° N 21:36:07 10° E visible
29 Jun 3.0 23:06:20 10° WNW 23:07:30 21° W 23:07:30 21° W visible
30 Jun 0.9 21:49:52 10° WNW 21:52:40 71° NNE 21:54:21 21° E visible
01 Jul 1.1 22:09:01 10° WNW 22:11:45 50° SSW 22:12:17 41° SSE visible
